• In Latvia
  • List of Countries
  • For 7 days
  • Water Temperature
  • Satellite Maps
  • Weather Map
  • Weather Widgets
  • user-avatar
    Login

    Hourly Weather Campo Grande

    Today, 23 February, Friday

    Time Temperature Precipitation Wind Pressure Humidity
    00:00 +19°C° 0 mm 2 mps 709 mmHg 76%
    01:00 +18°C° 0 mm 2 mps 709 mmHg 77%
    02:00 +18°C° 0 mm 2 mps 709 mmHg 77%
    03:00 +17°C° 0 mm 2 mps 709 mmHg 77%
    04:00 +18°C° 0 mm 1 mps 708 mmHg 77%
    05:00 +18°C° 0 mm 1 mps 708 mmHg 77%
    06:00 +18°C° 0 mm 2 mps 709 mmHg 73%
    07:00 +20°C° 0 mm 2 mps 710 mmHg 70%
    08:00 +23°C° 0 mm 2 mps 710 mmHg 66%
    09:00 +24°C° 0 mm 2 mps 710 mmHg 59%
    10:00 +26°C° 0 mm 2 mps 711 mmHg 53%
    11:00 +28°C° 0 mm 2 mps 711 mmHg 47%
    12:00 +29°C° 0 mm 1 mps 710 mmHg 45%
    13:00 +30°C° 0 mm 1 mps 710 mmHg 42%
    14:00 +31°C° 0 mm 1 mps 709 mmHg 40%
    15:00 +30°C° 0 mm 1 mps 709 mmHg 45%
    16:00 +29°C° 0 mm 1 mps 709 mmHg 50%
    17:00 +28°C° 0 mm 2 mps 708 mmHg 54%
    18:00 +26°C° 0 mm 2 mps 708 mmHg 58%
    19:00 +24°C° 0 mm 2 mps 708 mmHg 61%
    20:00 +21°C° 0 mm 2 mps 708 mmHg 64%
    21:00 +21°C° 0 mm 2 mps 709 mmHg 66%
    22:00 +20°C° 0 mm 2 mps 709 mmHg 68%
    23:00 +20°C° 0 mm 2 mps 709 mmHg 69%

    Tomorrow, 24 February, Saturday

    Time Temperature Precipitation Wind Pressure Humidity
    00:00 +19°C° 0 mm 2 mps 709 mmHg 70%
    01:00 +19°C° 0 mm 2 mps 708 mmHg 70%
    02:00 +20°C° 0 mm 1 mps 708 mmHg 71%
    03:00 +20°C° 0 mm 1 mps 708 mmHg 71%
    04:00 +20°C° 0 mm 1 mps 708 mmHg 71%
    05:00 +19°C° 0 mm 1 mps 708 mmHg 70%
    06:00 +21°C° 0 mm 1 mps 709 mmHg 69%
    07:00 +22°C° 0 mm 1 mps 710 mmHg 67%
    08:00 +24°C° 0 mm 1 mps 710 mmHg 66%
    09:00 +26°C° 0 mm 2 mps 711 mmHg 61%
    10:00 +27°C° 0 mm 2 mps 711 mmHg 57%
    11:00 +29°C° 0 mm 2 mps 711 mmHg 53%
    12:00 +29°C° 0 mm 2 mps 710 mmHg 52%
    13:00 +30°C° 0 mm 2 mps 710 mmHg 51%
    14:00 +30°C° 0 mm 2 mps 709 mmHg 50%
    15:00 +29°C° 0 mm 2 mps 709 mmHg 54%
    16:00 +29°C° 0 mm 2 mps 708 mmHg 59%
    17:00 +28°C° 0 mm 2 mps 708 mmHg 64%
    18:00 +26°C° 0 mm 2 mps 708 mmHg 66%
    19:00 +25°C° 0 mm 2 mps 709 mmHg 67%
    20:00 +23°C° 0 mm 2 mps 709 mmHg 69%
    21:00 +23°C° 0 mm 2 mps 709 mmHg 71%
    22:00 +23°C° 0 mm 2 mps 709 mmHg 73%
    23:00 +23°C° 0 mm 2 mps 710 mmHg 75%

    Day after tomorrow, 25 February, Sunday

    Time Temperature Precipitation Wind Pressure Humidity
    00:00 +21°C° 0 mm 2 mps 709 mmHg 79%
    01:00 +21°C° 0 mm 2 mps 709 mmHg 84%
    02:00 +21°C° 0 mm 2 mps 709 mmHg 88%
    03:00 +21°C° 0 mm 2 mps 709 mmHg 90%
    04:00 +21°C° 0 mm 2 mps 709 mmHg 92%
    05:00 +21°C° 0 mm 2 mps 709 mmHg 94%
    06:00 +23°C° 0 mm 2 mps 709 mmHg 90%
    07:00 +24°C° 0 mm 3 mps 710 mmHg 85%
    08:00 +26°C° 0 mm 3 mps 711 mmHg 80%
    09:00 +27°C° 0 mm 3 mps 711 mmHg 75%
    10:00 +28°C° 0 mm 3 mps 711 mmHg 70%
    11:00 +30°C° 0 mm 2 mps 711 mmHg 65%
    12:00 +30°C° 0.3 mm 2 mps 710 mmHg 63%
    13:00 +30°C° 0.3 mm 3 mps 709 mmHg 62%
    14:00 +31°C° 0.3 mm 3 mps 708 mmHg 61%
    15:00 +30°C° 0.5 mm 3 mps 708 mmHg 65%
    16:00 +29°C° 0.5 mm 3 mps 708 mmHg 70%
    17:00 +28°C° 0.5 mm 3 mps 707 mmHg 74%
    18:00 +27°C° 0 mm 3 mps 708 mmHg 77%
    19:00 +26°C° 0 mm 2 mps 708 mmHg 80%
    20:00 +24°C° 0 mm 2 mps 709 mmHg 83%
    21:00 +24°C° 0 mm 2 mps 709 mmHg 84%
    22:00 +23°C° 0 mm 2 mps 709 mmHg 85%
    23:00 +23°C° 0 mm 2 mps 709 mmHg 86%

    26 February, Monday

    Time Temperature Precipitation Wind Pressure Humidity
    00:00 +23°C° 0 mm 2 mps 709 mmHg 88%
    01:00 +21°C° 0 mm 2 mps 708 mmHg 90%
    02:00 +21°C° 0 mm 2 mps 708 mmHg 92%
    03:00 +21°C° 0 mm 2 mps 708 mmHg 93%
    04:00 +21°C° 0 mm 2 mps 708 mmHg 94%
    05:00 +21°C° 0 mm 2 mps 708 mmHg 95%
    06:00 +23°C° 0 mm 2 mps 709 mmHg 91%
    07:00 +24°C° 0 mm 3 mps 709 mmHg 87%
    08:00 +25°C° 0 mm 3 mps 710 mmHg 83%
    09:00 +26°C° 0.1 mm 3 mps 710 mmHg 80%
    10:00 +27°C° 0.1 mm 2 mps 710 mmHg 76%
    11:00 +28°C° 0.1 mm 2 mps 709 mmHg 73%
    12:00 +29°C° 0.4 mm 2 mps 709 mmHg 71%
    13:00 +29°C° 0.4 mm 2 mps 708 mmHg 70%
    14:00 +30°C° 0.4 mm 2 mps 707 mmHg 68%
    15:00 +29°C° 0.2 mm 2 mps 707 mmHg 71%
    16:00 +29°C° 0.2 mm 2 mps 707 mmHg 74%
    17:00 +29°C° 0.2 mm 2 mps 707 mmHg 76%
    18:00 +27°C° 0.6 mm 2 mps 707 mmHg 82%
    19:00 +26°C° 0.6 mm 2 mps 707 mmHg 87%
    20:00 +24°C° 0.6 mm 2 mps 708 mmHg 93%
    21:00 +24°C° 0.5 mm 2 mps 708 mmHg 93%
    22:00 +24°C° 0.5 mm 2 mps 708 mmHg 94%
    23:00 +23°C° 0.5 mm 2 mps 708 mmHg 94%

    27 February, Tuesday

    Time Temperature Precipitation Wind Pressure Humidity
    00:00 +23°C° 0 mm 2 mps 708 mmHg 94%
    01:00 +23°C° 0 mm 1 mps 707 mmHg 95%
    02:00 +23°C° 0 mm 1 mps 707 mmHg 95%
    03:00 +23°C° 0 mm 1 mps 707 mmHg 95%
    04:00 +22°C° 0 mm 1 mps 707 mmHg 96%
    05:00 +22°C° 0 mm 1 mps 707 mmHg 96%
    06:00 +23°C° 0 mm 1 mps 708 mmHg 94%
    07:00 +24°C° 0 mm 1 mps 708 mmHg 91%
    08:00 +25°C° 0 mm 1 mps 709 mmHg 89%
    09:00 +26°C° 0.1 mm 1 mps 709 mmHg 84%
    10:00 +27°C° 0.1 mm 1 mps 709 mmHg 78%
    11:00 +28°C° 0.1 mm 1 mps 709 mmHg 73%
    12:00 +29°C° 0.9 mm 1 mps 708 mmHg 73%
    13:00 +29°C° 0.9 mm 2 mps 708 mmHg 73%
    14:00 +29°C° 0.9 mm 2 mps 707 mmHg 73%
    15:00 +28°C° 1.7 mm 2 mps 707 mmHg 78%
    16:00 +28°C° 1.7 mm 1 mps 707 mmHg 82%
    17:00 +27°C° 1.7 mm 1 mps 707 mmHg 86%
    18:00 +26°C° 0.7 mm 1 mps 707 mmHg 88%
    19:00 +23°C° 0.7 mm 0 mps 707 mmHg 90%
    20:00 +22°C° 0.7 mm 0 mps 707 mmHg 92%
    21:00 +22°C° 0.3 mm 0 mps 708 mmHg 92%
    22:00 +22°C° 0.3 mm 0 mps 708 mmHg 93%
    23:00 +22°C° 0.3 mm 0 mps 708 mmHg 93%

    28 February, Wednesday

    Time Temperature Precipitation Wind Pressure Humidity
    00:00 +22°C° 0 mm 0 mps 707 mmHg 93%
    01:00 +21°C° 0 mm 0 mps 707 mmHg 94%
    02:00 +21°C° 0 mm 0 mps 707 mmHg 94%
    03:00 +23°C° 0 mm 1 mps 707 mmHg 94%
    04:00 +23°C° 0 mm 1 mps 707 mmHg 95%
    05:00 +23°C° 0 mm 1 mps 707 mmHg 95%
    06:00 +24°C° 0 mm 1 mps 708 mmHg 93%
    07:00 +24°C° 0 mm 2 mps 708 mmHg 91%
    08:00 +25°C° 0 mm 2 mps 709 mmHg 88%
    09:00 +26°C° 0.9 mm 2 mps 709 mmHg 85%
    10:00 +27°C° 0.9 mm 3 mps 709 mmHg 81%
    11:00 +28°C° 0.9 mm 3 mps 709 mmHg 77%
    12:00 +29°C° 1.3 mm 3 mps 708 mmHg 75%
    13:00 +29°C° 1.3 mm 2 mps 708 mmHg 74%
    14:00 +29°C° 1.3 mm 2 mps 707 mmHg 73%
    15:00 +29°C° 1 mm 2 mps 707 mmHg 76%
    16:00 +28°C° 1 mm 1 mps 707 mmHg 79%
    17:00 +28°C° 1 mm 1 mps 707 mmHg 83%
    18:00 +27°C° 0.2 mm 1 mps 707 mmHg 85%
    19:00 +26°C° 0.2 mm 1 mps 707 mmHg 87%
    20:00 +25°C° 0.2 mm 1 mps 708 mmHg 89%
    21:00 +24°C° 0.3 mm 1 mps 708 mmHg 89%
    22:00 +24°C° 0.3 mm 1 mps 708 mmHg 90%
    23:00 +24°C° 0.3 mm 1 mps 708 mmHg 91%
    Show more